Wellsville, NY

6:20 PM EST on February 22, 2018 (GMT -0500)
Wellsville Municipal-Tarantine

Weather History for KELZ - December, 2012

Change the Weather History Date:

Wednesday, December 5, 2012

  Actual Average (KDSV) Record (KDSV)
Temperature  
Mean Temperature 34 °F -  
Max Temperature 43 °F 39 °F 71 °F (2001)
Min Temperature 24 °F 23 °F 3 °F (1966)
Degree Days  
Heating Degree Days 32    
Moisture  
Dew Point 23 °F    
Average Humidity 68    
Maximum Humidity 81    
Minimum Humidity 54    
Precipitation  
Precipitation 0.00 in - - ()
Sea Level Pressure  
Sea Level Pressure 30.18 in    
Wind  
Wind Speed 12 mph (NW)    
Max Wind Speed 21 mph    
Max Gust Speed 30 mph    
Visibility 9 miles    
Events Snow    
Averages and records for this station are not official NWS values.
T = Trace of Precipitation, MM = Missing Value Source: NWS Daily Summary

Daily Weather History Graph

Daily Weather History Graph

Search for Another Location

Airport or City:

Trip Planner

Search our weather history database for the weather conditions in past years. The results will help you decide how hot, cold, wet, or windy it might be!

Date:

Astronomy

Dec. 05, 2012 Rise Set
Actual Time 7:25 AM EST 4:40 PM EST
Civil Twilight 6:53 AM EST 5:11 PM EST
Nautical Twilight 6:18 AM EST 5:46 PM EST
Astronomical Twilight 5:45 AM EST 6:20 PM EST
Moon 11:33 PM EST (12/5) 11:43 AM EST (12/5)
Length of Visible Light 10h 17m
Length of Day
9h 14m
Waning Gibbous, 60% of the Moon is Illuminated
Dec 5
Waning Gibbous
Dec 6
Last Quarter
Dec 13
New
Dec 20
First Quarter
Dec 28
Full

Hourly Weather History & Observations

Time (EST) Temp. Windchill Dew Point Humidity Pressure Visibility Wind Dir Wind Speed Gust Speed Precip Events Conditions
12:56 AM 43.0 °F 38.2 °F 37.0 °F 80% 30.01 in 10.0 mi West 8.1 mph - 0.00 in   Clear
1:56 AM 42.1 °F 36.6 °F 35.1 °F 76% 30.02 in 10.0 mi West 9.2 mph - N/A   Mostly Cloudy
2:56 AM 41.0 °F 33.5 °F 34.0 °F 76% 30.02 in 10.0 mi West 13.8 mph 19.6 mph N/A   Mostly Cloudy
3:09 AM 39.2 °F 35.0 °F 33.8 °F 81% 30.02 in 10.0 mi West 5.8 mph 17.3 mph N/A   Scattered Clouds
3:18 AM 39.2 °F 34.2 °F 33.8 °F 81% 30.02 in 10.0 mi West 6.9 mph - N/A   Mostly Cloudy
3:56 AM 39.9 °F 33.4 °F 33.1 °F 77% 30.03 in 10.0 mi West 10.4 mph - N/A   Mostly Cloudy
4:56 AM 39.9 °F 33.4 °F 30.9 °F 70% 30.04 in 10.0 mi WNW 10.4 mph - N/A   Overcast
5:56 AM 39.0 °F 32.3 °F 30.0 °F 70% 30.07 in 10.0 mi WNW 10.4 mph - N/A   Overcast
6:46 AM 37.4 °F 28.5 °F 28.4 °F 70% 30.06 in 10.0 mi WNW 15.0 mph 25.3 mph N/A   Mostly Cloudy
6:56 AM 37.9 °F 27.9 °F 27.0 °F 65% 30.09 in 10.0 mi WNW 19.6 mph 25.3 mph N/A   Partly Cloudy
7:31 AM 37.4 °F 28.5 °F 28.4 °F 70% 30.07 in 10.0 mi WNW 15.0 mph - N/A   Mostly Cloudy
7:56 AM 37.9 °F 30.0 °F 28.0 °F 68% 30.11 in 10.0 mi WNW 12.7 mph - N/A   Overcast
9:56 AM 35.1 °F 25.2 °F 26.1 °F 70% 30.16 in 10.0 mi NW 16.1 mph 27.6 mph N/A   Overcast
10:56 AM 34.0 °F 23.0 °F 23.0 °F 64% 30.19 in 10.0 mi NW 18.4 mph 26.5 mph N/A   Overcast
11:56 AM 33.1 °F 21.2 °F 19.9 °F 59% 30.20 in 10.0 mi NW 20.7 mph 29.9 mph N/A   Overcast
12:37 PM 32.0 °F 21.2 °F 19.4 °F 60% 30.16 in 10.0 mi NNW 16.1 mph 25.3 mph 0.00 in   Overcast
12:56 PM 32.0 °F 20.8 °F 19.0 °F 59% 30.22 in 10.0 mi NW 17.3 mph - 0.00 in   Overcast
1:39 PM 32.0 °F 20.5 °F 19.4 °F 60% 30.16 in 7.0 mi WNW 18.4 mph 28.8 mph 0.00 in Snow Light Snow
1:56 PM 32.0 °F 22.5 °F 21.0 °F 64% 30.22 in 7.0 mi NW 12.7 mph - 0.00 in Snow Light Snow
2:48 PM 30.2 °F 19.8 °F 21.2 °F 69% 30.17 in 9.0 mi WNW 13.8 mph - 0.00 in Snow Light Snow
2:56 PM 30.9 °F 22.2 °F 21.9 °F 69% 30.23 in 10.0 mi WNW 10.4 mph - 0.00 in   Overcast
3:10 PM 30.2 °F 20.2 °F 21.2 °F 69% 30.18 in 2.5 mi NW 12.7 mph 23.0 mph 0.00 in Snow Light Snow
3:18 PM 30.2 °F 19.3 °F 23.0 °F 75% 30.18 in 1.0 mi NW 15.0 mph 23.0 mph 0.00 in Snow Light Snow
3:29 PM 30.2 °F 20.8 °F 23.0 °F 75% 30.19 in 3.0 mi NW 11.5 mph 25.3 mph 0.00 in Snow Light Snow
3:38 PM 30.2 °F 20.2 °F 21.2 °F 69% 30.19 in 9.0 mi NW 12.7 mph 19.6 mph 0.00 in Snow Light Snow
3:56 PM 30.0 °F 21.7 °F 21.0 °F 69% 30.26 in 7.0 mi NW 9.2 mph - 0.00 in Snow Light Snow
4:21 PM 30.2 °F 20.2 °F 19.4 °F 64% 30.21 in 9.0 mi NW 12.7 mph 23.0 mph 0.00 in Snow Light Snow
4:38 PM 30.2 °F 20.2 °F 17.6 °F 60% 30.22 in 10.0 mi NNW 12.7 mph - 0.00 in   Overcast
4:56 PM 30.0 °F 17.9 °F 15.1 °F 54% 30.29 in 10.0 mi NW 18.4 mph 28.8 mph 0.00 in   Overcast
5:56 PM 28.9 °F 18.2 °F 15.1 °F 56% 30.31 in 10.0 mi NW 13.8 mph - N/A   Overcast
6:04 PM 28.4 °F 18.0 °F 15.8 °F 59% 30.24 in 10.0 mi NW 12.7 mph 20.7 mph N/A   Overcast
6:56 PM 28.9 °F 18.6 °F 19.0 °F 67% 30.32 in 10.0 mi NNW 12.7 mph - N/A   Overcast
7:56 PM 28.0 °F 18.1 °F 18.0 °F 66% 30.33 in 9.0 mi NNW 11.5 mph - 0.00 in Snow Light Snow
8:56 PM 27.0 °F 18.0 °F 17.1 °F 66% 30.33 in 10.0 mi NW 9.2 mph - 0.00 in   Overcast
9:56 PM 26.1 °F 19.4 °F 16.0 °F 66% 30.33 in 10.0 mi Variable 5.8 mph - 0.00 in   Overcast
10:39 PM 24.8 °F 19.1 °F 15.8 °F 69% 30.26 in 10.0 mi NNW 4.6 mph - N/A   Scattered Clouds
10:56 PM 24.1 °F 18.2 °F 15.1 °F 69% 30.34 in 10.0 mi NW 4.6 mph - N/A   Partly Cloudy
11:12 PM 24.8 °F 17.9 °F 15.8 °F 69% 30.27 in 10.0 mi NW 5.8 mph - N/A   Mostly Cloudy
11:56 PM 26.1 °F 21.9 °F 17.1 °F 69% 30.36 in 10.0 mi North 3.5 mph - N/A   Overcast